This demonstration page uses our WeatherBlox Daily Observations layout. Learn more.

Left ArrowRight Arrow

Hourly Observations for June 24, 2017

Temp ( °F °C ) Dew Point ( °F °C ) Humidity (%) Winds ( mph kmh ) Pressure ( in mb ) Visibility ( mi km ) Precip ( " mm )
12:59 am 00:59 Mostly Clear 82 27.8 75 23.9 79 79 SSW 17 28 29.82 1010 9 14 0.00 0.00
1:59 am 01:59 Partly Cloudy 81 27.2 73 22.8 77 77 SSW 15 24 29.80 1009 9 14 0.00 0.00
2:59 am 02:59 Partly Cloudy 80 26.7 71 21.7 74 74 SSW 13 20 29.77 1008 10 16 0.00 0.00
3:59 am 03:59 Partly Cloudy 80 26.7 69 20.6 69 69 SSW 17 28 29.76 1008 10 16 0.00 0.00
4:59 am 04:59 Partly Cloudy 80 26.7 69 20.6 69 69 SSW 17 28 29.74 1007 10 16 0.00 0.00
5:59 am 05:59 Mostly Cloudy 80 26.7 69 20.6 69 69 SSW 17 28 29.74 1007 10 16 0.00 0.00
6:59 am 06:59 Mostly Cloudy 81 27.2 70 21.1 69 69 WSW 17 28 29.78 1009 10 16 0.00 0.00
7:59 am 07:59 Mostly Cloudy 82 27.8 71 21.7 69 69 WSW 17 28 29.82 1010 10 16 0.00 0.00
8:59 am 08:59 Mostly Cloudy 83 28.3 71 21.7 67 67 W 18 30 29.85 1011 10 16 0.00 0.00
9:59 am 09:59 Mostly Sunny 84 28.9 69 20.6 61 61 W 12 19 29.87 1012 10 16 0.00 0.00
10:59 am 10:59 Mostly Sunny 86 30 67 19.4 53 53 W 9 15 29.89 1012 10 16 0.00 0.00
11:59 am 11:59 Partly Cloudy 87 30.6 67 19.4 51 51 WNW 10 17 29.91 1013 10 16 0.00 0.00
12:59 pm 12:59 Partly Cloudy 87 30.6 66 18.9 50 50 W 10 17 29.91 1013 10 16 0.00 0.00
1:59 pm 13:59 Partly Cloudy 88 31.1 66 18.9 48 48 W 8 13 29.91 1013 10 16 0.00 0.00
2:59 pm 14:59 Partly Cloudy 89 31.7 65 18.3 45 45 W 8 13 29.90 1013 10 16 0.00 0.00
3:59 pm 15:59 Partly Cloudy 90 32.2 66 18.9 45 45 WNW 8 13 29.90 1013 10 16 0.00 0.00
4:59 pm 16:59 Mostly Cloudy 89 31.7 68 20 50 50 WSW 10 17 29.89 1012 10 16 0.00 0.00
5:59 pm 17:59 Mostly Cloudy 87 30.6 70 21.1 57 57 SSW 5 7 29.89 1012 10 16 0.00 0.00
6:59 pm 18:59 Mostly Cloudy 87 30.6 68 20 53 53 SW 8 13 29.90 1013 10 16 0.00 0.00
7:59 pm 19:59 Mostly Cloudy 85 29.4 69 20.6 59 59 SW 6 9 29.93 1013 10 16 0.00 0.00
8:59 pm 20:59 Mostly Cloudy with Light Rain 83 28.3 71 21.7 67 67 SW 5 7 29.95 1014 7 11 0.00 0.03
9:59 pm 21:59 Cloudy 78 25.6 50 10 37 37 SSW 5 7 29.96 1015 10 16 0.05 1.27
10:59 pm 22:59 Cloudy 77 25 71 21.7 82 82 SW 5 7 29.98 1015 10 16 0.06 1.52
11:59 pm 23:59 Mostly Cloudy 75 23.9 71 21.7 88 88 S 5 7 29.98 1015 10 16 0.00 0.00

Powered by AerisWeather